CamptonHillsWeather.com

Find the Weather for any City, State  
or Zipcode, or Country:

Campton Hills, IL Weather
Local Radar

Local Radar

Graphs, Details
Graphs and Gauges
Detailed Weather
Detailed Reports
Ajax Version (old)
Central Kane Co Summary
Davis Current Weather Graphs
Davis 24 Hour Weather History

CW3778 Data

Weather Underground
Maps
Temperature
Heat Index
Windchill
Humidity
Radar
Dew Point
Wind
Visibility
Visible Satellite
Satellite
Fronts
Snow Depth
Jet Stream
Flight Rules
Forecast Maps
Temperature Forecast
Maximum Temperature Forecast
Minimum Temperature Forecast
Dewpoint Forecast
Prevalent Weather
12Hr Probability of Precip.
Sky Cover
Health Maps
UV Forecast
Air Quality
Peak Air Quality Index
Weather Station
Davis Instruments Vantage Pro
Current Conditions [Select Refresh to Update]

Updated: 4:53am on 7/23/14

(location)
Currently:
63.5F

Clear
Clear

High: 75.3 F< 
(12:00am
Low: 63.4 F 
(4:53am)
Wind: NNE 0 mph
Calm
Gust: 3 mph
Today's High Wind: 9 mph (1:05am)
Humidity: 82%
Pressure: 30.05 in  (Steady
Pressure Rate: 0.012 in/hr
Dew Point: 57.9F
Wind Chill: 63.5 F
Heat Index (feels like): 68.0 F
Comfort Level: Comfortable
Temperature Rate:  -1.64F/hr
 
5 Day Forecast
 
Wed Thu Fri Sat Sun
Clear Clear Clear Clear Clear
Partly Cloudy Clear Partly Cloudy Chance T-storms Partly Cloudy
75 79 79 90 81
54 54 59 63 57

Records and Normals
 
Temperature Forecast Normal Record
High 75 85 93
(1999)
Low 54 63 48
(2000)
 
Links
 
 
Weather Advisories
No Advisories
Full Advisory Text...
Weather Map

Web Cam

Almanac
 
Sunrise:  
5:40am
Moonrise: 
2:58am

Moon Phase:
13%

Sunset: 
8:23pm
Moonset:  
5:50pm
 Star Chart...
Rainfall Totals
Hourly Rain 0.00 in
Daily Rain: 0.00 in
Monthly Rain: 2.16 in
Yearly Rain: 21.34 in
Normal Rain, month to date: 2.17 in
Normal Rain, year to date: 16.75 in
Link to Village of Campton Hills Map

Link to Counties of Illinois Map

Local Weather Exchange Network
Station ID City 
(Click for Map Location)
Neighborhood 
(Click for History)
Last Update (Date & Time) Temperature
 ()
Dew
Point ()
Humidity 
(%)
Wind 
(mph)
from the Wind Gust 
(mph) 
Pressure(in) Hourly
Rain(in)
KILSTCHA10 St. Charles Hunt Club 07/23 04:46:09 63.5 61.0 91 0 NNE 0 29.68 0.00
KILSOUTH6 South Elgin Thornwood 07/23 04:39:33 64.6 57.0 76 4 NNE 0 29.95 0.00
KILCAMPT3 Campton Hills Campton Hills 07/23 04:46:06 63.9 59.0 83 0 SSE 5 30.06 0.00
KILGENEV6 Geneva Dover Ridge 07/23 04:46:14 64.4 58.0 81 4 ENE 4 30.02 0.00
KILSTCHA8 St. Charles Ronzheimer Ave. & S. Tyler Rd. 07/23 04:46:09 64.1 58.0 79 3 NNE 4 30.02 0.00
KILGENEV3 Geneva Mill Creek (NE) 07/23 04:46:13 64.0 59.0 83 4 North 8 30.05 0.00
KILSTCHA1 St Charles CamptonHillsWeather.com Central Kane County 07/23 04:46:12 63.6 58.0 82 1 ENE 6 30.05 0.00
KILELGIN13 Elgin Creek Side 07/23 04:46:11 65.0 59.0 81 3 ESE 6 29.18 0.00
KILSOUTH5 South Elgin Concord Park 07/23 04:41:12 64.2 59.0 82 4 North 0 29.86 0.00
KILGENEV2 Geneva Mill Creek 07/23 04:33:55 64.1 59.0 82 4 North 10 29.99 0.00
KILELBUR7 Elburn Cheval-De-Selle 07/23 04:40:12 61.0 57.0 86 4 NW 0 30.00 0.00
KILBATAV1 Batavia Tri-Cities on the Fox River 07/23 04:45:24 65.3 58.0 77 0 ENE 8 30.06 0.00
KILELBUR5 Elburn Prairie Highlands 07/23 04:45:16 64.2 59.0 83 2 NNE 7 30.04 0.00
KILBATAV3 Batavia West Batavia 07/23 04:46:03 64.0 59.0 83 6 NE 0 30.00 0.00
KILELBUR6 Elburn Columbine Square 07/23 04:33:31 64.2 59.0 83 2 East 8 29.98 0.00
KILBATAV5 Batavia Fermi National Accelerator Laboratory 07/23 04:36:02 64.1 58.0 80 2 NW 11 29.99 0.00
KILWESTC5 West Chicago THEBROWNHOUSE.ORG 07/23 04:46:13 62.6 54.0 73 0 NNE 0 30.07 0.00
KILWESTC8 West Chicago Ingalton Hills Estates 07/23 04:46:12 63.0 56.0 79 7 NNW 7 30.17 0.00
KILBARTL1 Bartlett Amber Grove KC9TVS 07/23 04:33:34 64.3 52.0 64 2 NNW 14 30.09 0.00
KILNORTH11 North Aurora Waterford Oaks 07/23 04:46:05 64.2 59.0 84 2 NNE 7 30.03 0.00
KILELGIN10 Elgin Wing Park 07/23 04:45:31 63.9 55.0 73 1 South 0 29.27 0.00
MUP188 Elburn MesoWest ELBRN1 IL US UPR 07/23 02:45:00 69.0 0.0 0 0 North 0 0.00 0.00
KILELGIN14 Elgin Elgin, IL 07/23 04:46:06 63.3 57.0 79 1 NE 4 30.03 0.00
KILCAROL5 Carol Stream Stonehenge Court 07/23 04:45:05 64.4 37.0 36 7 North 8 30.04 0.00
KILGILBE2 Gilberts Gilberts, IL 07/23 04:45:59 63.3 56.0 77 7 SE 12 30.28 0.00
KILELGIN11 Elgin Trout Park 07/23 01:45:17 70.0 62.0 76 3 NNE 13 30.05 0.00
KILWINFI3 Winfield Fredericksburg Farm 07/23 04:46:06 64.5 57.0 76 3 NNW 7 29.96 0.00
KILWINFI2 Winfield Winfield Heights (SarahNet) 07/23 04:44:51 64.1 56.0 75 0 North 8 30.03 0.00
KILCAROL6 Carol Stream Merbach Ct 07/23 04:46:07 65.1 56.0 73 2 SE 7 30.02 0.00
KILSLEEP2 Sleepy Hollow Sleepy Hollow Manor 07/23 04:31:25 63.7 56.0 75 9 NNE 0 29.99 0.00
KILWARRE2 Warrenville meso_neigh31 07/23 04:46:10 64.4 58.0 79 1 WNW 9 30.01 0.00
KILHANOV2 Hanover Park meso_neigh32 07/23 04:45:43 64.4 56.0 75 3 WNW 4 30.07 0.00
KILWHEAT8 Wheaton Wheaton Sanitary District 07/23 04:45:41 65.7 59.0 78 4 North 7 30.04 0.00
KILWARRE4 Warrenville Cerny Park 07/23 04:44:59 64.8 60.0 84 1 SE 2 30.22 0.00
KILWHEAT5 Wheaton N9ABF - West Wheaton 07/23 04:43:44 64.3 56.0 74 6 North 0 30.05 0.00
KILSCHAU9 Schaumburg Schaumburg West 07/23 04:46:11 64.0 64.0 99 2 NNE 8 30.06 0.00
KILEASTD2 East Dundee Rock Road Industrial Park 07/23 04:44:04 63.3 54.0 71 9 NNE 16 30.08 0.00
KILCARPE6 Carpentersville Carpentersville 07/23 04:45:38 62.8 57.0 81 2 WNW 2 29.20 0.00
KILWHEAT11 Wheaton Wheaton SW Orth Ct 07/23 04:46:05 67.7 58.0 70 1 SE 1 30.18 0.00
KILNAPER19 Naperville Brookdale Lakes 07/23 04:46:12 64.8 58.0 78 0 West 3 30.03 0.00
Full Advisory Text
No Warnings

Ambient Weather and Weather Underground
 Never base important decisions on this or any weather information obtained from the Internet
Updated Automatically by Ambient Weather's Virtual Weather Station  V13.01